Regional Weather Roundup
Issued by NWS Glasgow, MT

Home | Current Version | Previous Version | Text Only | Print | Product List | Glossary On
Versions: 1 2 3 4 5 6 7 8 9 10 11 12 13 14 15 16 17 18 19 20 21 22 23 24 25 26 27 28 29 30 31 32 33 34 35 36 37 38 39 40 41 42 43 44 45 46 47 48 49 50
000
ASUS45 KGGW 211215
RWRGGW
HOURLY WEATHER ROUNDUP FOR NORTHEAST MONTANA
NATIONAL WEATHER SERVICE GLASGOW MONTANA
500 AM MST SUN DEC 21 2014

NOTE: "FAIR" INDICATES FEW OR NO CLOUDS BELOW 12,000 FEET WITH NO
SIGNIFICANT WEATHER AND/OR OBSTRUCTIONS TO VISISBILITY.

NORTHEAST MONTANA


CITY           SKY/WX    TMP DP  RH WIND       PRES   REMARKS
GLASGOW        PTCLDY    22  18  85 E13       29.43F
6HR MIN TEMP:  22; 6HR MAX TEMP:  25;

PLENTYWOOD       N/A     24  22  91 E3          N/A
WOLF POINT     CLEAR     18  14  84 NE6       29.49F
JORDAN           N/A     20  17  88 SE3       29.44F
WINNETT          N/A     34  25  69 S5          N/A
SIDNEY         CLEAR     18  16  93 CALM      29.54F
GLENDIVE       CLEAR     19  18  93 SW7       29.52F
MALTA            N/A     20  19  96 E3          N/A

FORT PECK REPORTS


CITY           SKY/WX    TMP DP  RH WIND       PRES   REMARKS
FORT PECK        N/A     32  26  78 E12         N/A
THE PINES        N/A     32  27  81 S8          N/A

SOUTHEAST MONTANA


CITY           SKY/WX    TMP DP  RH WIND       PRES   REMARKS
BILLINGS       CLOUDY    37  23  56 SW10      29.47F
MILES CITY     CLOUDY    28  23  81 S9        29.50F
BAKER          CLEAR     22  19  89 E7        29.53F
LIVINGSTON     CLOUDY    44  26  49 SW30G39   29.48F

CENTRAL MONTANA


CITY           SKY/WX    TMP DP  RH WIND       PRES   REMARKS
HAVRE          CLOUDY    24  20  84 E8        29.32F
LEWISTOWN      CLOUDY    41  30  65 SW21      29.39F
GREAT FALLS    PTCLDY    42  31  64 SW21G30   29.35F
CUT BANK       MOCLDY    38  31  76 W18       29.27F
HELENA         MOCLDY    34  30  85 N3        29.46F
BUTTE          CLOUDY    34  28  79 N6        29.53F
BOZEMAN        CLOUDY    40  28  62 CALM      29.52F

WESTERN MONTANA


CITY           SKY/WX    TMP DP  RH WIND       PRES   REMARKS
MISSOULA       MIX PCPN  32  32 100 W5        29.51F FOG
KALISPELL      NOT AVBL

NORTH DAKOTA


CITY           SKY/WX    TMP DP  RH WIND       PRES   REMARKS
WILLISTON      CLEAR     17  14  88 CALM      29.54F
DICKINSON      CLEAR     26  20  77 S10       29.53F
MINOT          CLEAR     19  15  84 SE3       29.58F
BISMARCK       CLOUDY    19  17  92 CALM      29.66F

SOUTHERN SASKATCHEWAN


CITY           SKY/WX    TMP DP  RH WIND       PRES   REMARKS
REGINA         PTCLDY    14  12  92 E8        29.49F
ESTEVAN        CLEAR     12   9  85 E7        29.54F
SWIFT CURRENT  CLEAR     25  19  80 S14       29.35



USA.gov is the U.S. government's official web portal to all federal, state and local government web resources and services.